Regional Weather Roundup
Issued by NWS Little Rock, AR

Home | Current Version | Previous Version | Text Only | Print | Product List | Glossary On
Versions: 1 2 3 4 5 6 7 8 9 10 11 12 13 14 15 16 17 18 19 20 21 22 23 24 25 26 27 28 29 30 31 32 33 34 35 36 37 38 39 40 41 42 43 44 45 46 47 48 49 50
000
ASUS44 KLZK 081405
RWRLZK

WEATHER ROUNDUP FOR ARKANSAS
NATIONAL WEATHER SERVICE LITTLE ROCK AR
800 AM CST MON FEB 08 2016

NOTE: "FAIR" INDICATES FEW OR NO CLOUDS BELOW 12,000 FEET WITH NO
SIGNIFICANT WEATHER AND/OR OBSTRUCTIONS TO VISIBILITY.

ARZ001-003-010-029-081500-
NORTHWEST ARKANSAS

CITY           SKY/WX    TMP DP  RH WIND       PRES   REMARKS
FAYETTEVILLE   PTCLDY    33  17  51 NW16G24   30.07S WCI  23
FORT SMITH     CLEAR     39  15  37 W17G23    30.13S
HARRISON       MOCLDY    34  19  54 NW14G25   29.97S WCI  25
BENTONVILLE    CLOUDY    34  16  47 NW14G21   30.07R WCI  24
ROGERS         CLOUDY    33  17  51 NW15G23   30.05S WCI  23
SILOAM SPGS    PTCLDY    34  12  40 NW17      30.09S WCI  23
HIGHFILL       MOCLDY    34  18  52 W13G26    30.06S WCI  25
SPRINGDALE     MOCLDY    34  16  47 W16G25    30.08R WCI  23
$$

ARZ004-005-016-081500-
NORTH CENTRAL ARKANSAS

CITY           SKY/WX    TMP DP  RH WIND       PRES   REMARKS
BATESVILLE     MOSUNNY   39  19  45 W14G24    29.97R
FLIPPIN        CLOUDY   N/A N/A N/A W16G29    29.95S
MTN HOME       CLOUDY    37  20  50 NW12G25   29.94F
$$

ARZ040-041-081500-
WEST CENTRAL ARKANSAS

CITY           SKY/WX    TMP DP  RH WIND       PRES   REMARKS
MENA           CLEAR     41  19  42 NW16G24   30.13R
MOUNT IDA      CLEAR     40  16  37 NW9G30    30.05S
$$

ARZ009-017-025-026-028-081500-
NORTHEAST ARKANSAS

CITY           SKY/WX    TMP DP  RH WIND       PRES   REMARKS
CORNING        FAIR      37  19  48 NW23G44   29.90R
JONESBORO      CLOUDY    39  24  55 W20G25    29.91S
NEWPORT        SUNNY     41  23  48 NW18      29.97R
WALNUT RIDGE   PTSUNNY   39  21  48 NW24G31   29.92R
BLYTHEVILLE    CLOUDY    41  27  57 W7        29.89F
NW BLYTHEVILLE CLOUDY    41  27  56 W7        29.89
$$

ARZ022-023-033-042-044-081500-
CENTRAL ARKANSAS

CITY           SKY/WX    TMP DP  RH WIND       PRES   REMARKS
LITTLE ROCK    MOSUNNY   43  20  39 W20G31    30.02R
N LITTLE ROCK  MOSUNNY   40  23  50 W9G24     30.02R
JACKSONVILLE   SUNNY     41  21  44 W14G25    29.99S
SEARCY         SUNNY     41  22  46 NW14G20   30.00S
HOT SPRINGS    CLEAR     41  18  39 NW15G31   30.07R
RUSSELLVILLE   CLEAR     40  19  43 W18G26    30.04R
CLINTON        FAIR      39  19  45 NW13G22   30.00S
$$

ARZ036-081500-
EAST ARKANSAS

CITY           SKY/WX    TMP DP  RH WIND       PRES   REMARKS
WEST MEMPHIS   MOSUNNY   40  25  55 W8        29.93R
$$

ARZ050-053-066-070-073-081500-
SOUTHWEST ARKANSAS

CITY           SKY/WX    TMP DP  RH WIND       PRES   REMARKS
ARKADELPHIA    FAIR      43  20  40 W10       30.10R
CAMDEN         SUNNY     43  18  36 W12G17    30.10R
TEXARKANA      CLEAR     43  18  36 NW18G30   30.16R
EL DORADO      SUNNY     44  19  36 W18G25    30.12R
DE QUEEN       CLEAR     42  18  37 NW17G25   30.17R
$$

ARZ056-057-069-081500-
SOUTHEAST ARKANSAS

CITY           SKY/WX    TMP DP  RH WIND       PRES   REMARKS
PINE BLUFF     MOSUNNY   42  21  43 W14       30.04R
STUTTGART      MOSUNNY   43  23  45 W21       30.00R
MONTICELLO     SUNNY     43  23  45 W12       30.04R

$$





USA.gov is the U.S. government's official web portal to all federal, state and local government web resources and services.